Theta_e
296 296 296 296 297 297 296 296 296 296 296 297 297 297 297 297 297 295 293 296 289 285 286 288 288 284 285 285 282 284 284 287 287 285 285 285 284 287 286 288 287 285 282 281 282 279 277 294 293 285 292 296 295 295
295 295 296 296 296 296 296 296 296 296 296 296 297 297 297 297 297 297 289 294 295 286 284 288 289 289 287 286 285 285 284 281 285 283 285 285 285 287 286 282 291 284 289 286 287 286 294 296 294 296 297 296 297 296
295 295 294 295 296 296 296 296 296 295 295 296 296 296 297 297 297 296 291 291 289 285 284 282 283 287 289 289 290 280 283 284 285 288 283 283 278 283 277 281 285 289 294 288 289 292 293 294 297 297 298 295 296 297
294 294 294 294 295 295 295 296 296 295 295 295 295 296 296 296 296 296 291 290 289 285 277 279 283 283 288 289 288 289 287 287 286 284 279 280 279 285 282 283 283 286 286 285 284 287 291 295 296 297 296 295 293 294
293 293 294 294 294 294 294 295 295 295 295 295 295 295 295 296 296 295 293 292 291 284 277 277 281 285 286 286 285 286 284 282 281 277 277 275 280 280 282 281 279 285 285 283 283 291 290 292 295 295 294 295 296 294
293 293 294 294 293 293 294 294 294 295 295 295 295 295 295 295 295 291 285 290 292 290 282 275 284 281 285 285 283 283 283 282 280 279 278 280 282 279 275 274 281 284 286 288 285 289 288 288 289 291 291 293 295 295
293 293 293 294 293 293 293 293 294 294 295 295 295 294 295 294 292 286 283 287 291 291 282 276 275 279 280 281 282 282 283 282 281 279 278 278 278 279 275 271 279 281 283 284 286 285 282 284 284 288 289 289 289 289
292 293 293 293 293 293 293 293 293 294 294 294 294 293 294 294 293 287 291 294 292 286 283 275 275 275 278 278 277 281 279 280 279 279 279 276 278 278 272 277 280 282 283 283 281 278 281 285 285 286 287 287 286 286
292 292 292 292 292 292 292 293 293 293 294 293 293 293 290 288 285 285 292 293 292 285 276 274 270 269 275 276 277 278 278 273 278 274 275 276 274 271 275 275 272 269 269 269 269 271 274 276 275 278 280 283 283 285
292 292 292 292 292 292 292 292 293 293 293 292 289 284 278 282 289 290 283 279 280 281 280 273 272 270 275 274 272 272 272 271 268 273 277 273 272 277 265 266 266 266 266 266 263 264 265 265 268 270 272 276 279 283
291 291 291 291 292 292 291 292 292 291 291 286 281 279 283 290 284 281 275 273 269 269 273 274 271 272 277 271 269 275 272 271 266 271 270 269 269 268 264 263 264 265 264 264 264 263 263 264 264 266 268 270 273 276
291 290 291 291 291 291 291 290 291 289 285 285 284 285 285 281 277 272 270 266 265 266 268 271 272 273 274 279 274 273 270 270 265 271 268 266 272 262 260 259 261 262 261 260 261 261 261 262 264 264 264 266 268 272
290 290 291 291 290 290 290 290 290 290 289 286 282 278 276 273 268 267 263 263 261 265 267 270 271 275 276 276 273 270 265 265 268 265 265 269 261 260 258 258 258 259 259 259 258 259 259 260 261 264 266 269 270 275
289 290 290 290 289 288 288 289 289 289 284 277 273 269 270 267 269 266 265 267 269 268 267 269 270 273 271 271 272 265 268 266 263 262 265 259 257 256 256 256 255 255 256 257 257 257 258 258 260 265 268 270 272 271
289 289 289 288 288 288 288 289 289 282 278 272 271 265 265 268 263 261 260 262 261 263 266 268 268 270 269 268 269 266 262 261 264 264 259 255 254 253 253 254 254 254 256 256 256 256 257 258 260 264 264 266 268 266
288 287 285 288 287 287 287 286 282 276 277 274 272 267 259 262 261 259 258 259 262 263 265 267 268 266 266 265 262 263 261 261 263 251 253 253 252 252 253 254 254 256 256 256 256 257 257 258 259 261 261 262 263 263
287 277 285 285 284 285 285 279 278 275 273 269 267 260 259 255 254 253 254 257 260 260 265 263 265 265 267 264 261 253 256 249 250 250 252 252 251 252 253 254 256 256 256 256 256 257 257 258 260 259 258 259 260 261
275 280 283 283 283 282 281 278 274 269 269 263 262 254 253 254 254 253 253 256 258 259 259 260 258 259 260 258 258 247 249 250 251 251 252 252 253 254 255 255 256 256 256 256 256 257 257 256 257 257 258 258 258 258
276 280 283 285 283 275 274 273 273 265 261 258 257 256 254 254 255 254 254 255 255 255 255 254 251 248 246 247 247 249 249 250 249 251 252 253 255 255 255 256 256 256 256 256 256 256 256 256 256 257 257 257 256 257
282 282 281 282 281 271 268 267 271 269 262 259 258 256 256 255 254 253 253 252 252 251 248 247 246 247 248 250 251 251 252 253 252 250 251 253 255 256 255 255 255 256 256 256 256 256 255 255 256 256 256 256 255 254
275 274 276 276 273 268 263 262 266 266 261 257 258 257 254 254 251 250 250 252 249 246 246 247 247 251 252 252 253 253 253 253 251 251 251 252 254 255 254 255 255 256 255 255 255 255 255 254 255 255 255 254 255 256
266 274 267 270 268 266 262 261 261 264 263 259 257 256 252 250 249 249 253 249 248 247 249 251 251 251 251 252 253 254 253 253 253 254 254 254 253 254 254 254 253 254 255 255 255 255 255 256 256 256 255 255 255 255
268 268 263 261 261 259 256 260 259 258 258 256 257 254 252 250 252 254 249 249 249 253 253 252 252 253 253 254 254 254 254 253 252 252 252 252 255 256 255 254 254 252 254 256 257 256 256 257 257 257 257 256 256 255
264 257 254 253 253 250 253 251 254 255 254 253 253 251 250 251 254 251 248 249 251 253 252 252 253 252 253 253 252 253 253 254 253 252 252 252 253 254 256 255 254 253 253 256 256 256 256 256 256 256 255 255 254 254
254 248 249 244 249 248 247 246 247 250 249 249 250 250 250 251 248 247 247 249 251 251 251 252 252 252 251 251 252 253 255 254 252 251 251 252 252 254 254 255 255 253 253 254 254 254 254 255 254 254 253 253 252 252
243 244 242 238 244 243 245 243 244 245 247 248 247 249 249 247 246 245 248 250 250 251 251 251 250 250 251 251 250 251 252 254 254 252 251 251 250 249 250 250 251 252 253 252 252 253 252 252 251 251 250 250 250 250
243 241 242 240 242 244 242 243 244 245 244 245 246 247 249 247 246 246 251 252 251 252 253 253 252 251 250 250 251 251 252 253 254 253 253 252 251 250 249 248 248 250 251 252 251 250 250 250 249 248 248 247 245 247
244 242 242 241 240 238 238 237 238 238 240 244 246 246 247 246 246 249 251 253 253 253 254 254 253 253 252 251 250 250 251 251 254 255 254 253 251 251 249 249 250 253 250 250 253 250 247 247 246 247 247 247 246 245
243 242 241 241 239 241 241 240 240 241 244 239 243 246 244 245 247 249 251 252 253 253 252 252 252 250 251 251 251 249 247 249 251 249 248 248 249 250 249 247 247 247 246 246 252 256 252 250 247 246 244 246 245 244
240 237 240 238 240 241 242 242 242 244 245 243 242 247 248 248 249 250 250 250 250 251 250 248 247 245 247 245 246 248 245 244 246 247 244 244 246 246 245 244 244 245 244 243 247 247 250 246 247 245 245 245 245 246
236 235 238 238 240 238 238 234 236 238 236 237 235 240 243 242 245 246 248 245 243 240 242 243 241 238 239 240 239 240 245 242 238 240 240 242 242 242 243 244 245 241 238 241 243 243 244 245 243 241 243 243 243 243
236 234 239 242 241 237 234 234 233 236 233 237 239 233 237 239 242 244 243 242 240 241 245 241 239 245 243 244 239 240 245 246 245 245 243 245 245 245 246 246 245 242 241 244 243 243 242 241 242 242 242 242 243 242
233 231 232 236 240 240 237 236 237 238 236 236 237 233 233 238 243 245 244 243 247 250 248 247 246 244 242 243 243 244 245 245 245 250 252 253 253 253 253 251 247 245 245 245 245 244 243 243 243 243 243 243 243 243
Wind_Speed
21 23 23 24 25 26 24 24 23 24 22 21 21 22 19 19 18 12 5 7 5 4 10 7 8 9 7 4 4 6 8 2 3 12 12 14 11 15 16 25 28 24 13 13 14 19 27 18 24 26 29 29 25 22
23 22 24 24 24 25 25 24 23 23 23 23 21 22 22 19 19 17 4 6 7 5 6 4 11 13 15 16 8 3 6 8 5 5 4 6 6 6 15 14 19 23 28 27 22 15 11 15 30 30 32 27 24 18
22 25 24 23 26 25 26 27 26 24 24 24 23 21 23 21 20 16 5 6 3 5 6 5 10 12 11 16 13 9 8 8 6 3 4 6 5 7 7 7 8 10 21 20 26 28 22 16 17 22 24 26 27 24
24 26 25 24 26 25 25 26 27 26 24 24 25 22 22 20 21 17 7 4 3 3 4 5 2 6 4 8 7 11 15 9 8 4 5 6 7 5 11 10 9 11 11 9 13 21 22 21 19 16 16 17 15 17
25 27 26 25 27 24 25 25 26 27 26 24 24 24 23 21 19 14 5 7 7 5 3 4 2 9 13 15 19 16 14 13 7 7 8 13 10 11 13 17 18 20 19 15 17 19 17 16 13 17 22 26 22 16
25 26 25 26 24 24 25 24 26 27 26 25 24 23 23 21 18 3 4 7 11 9 5 4 2 4 8 11 10 10 8 7 4 4 5 5 10 11 11 14 17 20 21 21 24 27 26 23 22 23 22 21 20 16
26 26 25 25 25 24 24 25 25 25 26 23 21 20 21 20 8 5 2 1 6 5 3 3 3 5 4 3 3 3 6 5 5 6 8 12 13 15 16 20 24 24 26 26 27 28 29 28 27 24 24 28 28 28
24 23 22 23 24 24 23 24 24 24 23 19 17 16 16 17 14 8 8 13 6 4 5 4 3 3 4 3 5 3 5 3 5 6 10 15 13 11 12 18 22 26 26 24 16 18 19 19 20 21 22 23 27 28
23 22 20 22 23 23 21 22 23 21 18 13 12 13 2 2 3 4 12 13 5 3 3 2 3 6 1 4 2 2 3 7 4 8 12 8 8 9 15 14 15 14 13 18 22 20 17 14 17 20 21 23 22 23
22 21 22 21 20 20 19 19 20 17 14 11 3 2 3 5 4 11 3 2 3 2 3 4 2 6 4 1 2 1 1 4 3 6 4 5 10 21 14 11 11 15 16 18 19 19 22 26 20 23 24 23 25 24
22 20 21 19 19 18 13 15 11 8 8 3 3 4 1 8 2 2 4 4 2 2 4 5 8 8 3 4 4 4 3 3 4 4 3 4 7 5 12 14 14 15 15 17 18 21 21 23 25 23 27 27 25 25
22 17 18 18 14 10 9 5 6 4 3 6 4 4 2 3 3 5 3 2 4 7 3 4 4 5 2 3 3 3 4 2 7 1 4 11 9 7 14 18 18 18 18 19 18 23 25 25 22 23 25 28 26 24
15 15 15 12 8 6 6 5 6 6 4 3 4 6 4 2 5 6 6 3 3 4 3 2 3 3 3 3 4 3 5 7 2 3 9 10 12 12 15 15 18 17 20 21 21 20 23 26 22 21 27 23 25 25
13 10 13 12 6 2 1 2 3 3 2 1 1 3 4 3 4 6 7 4 1 1 0 1 2 4 2 4 4 4 6 1 4 9 21 3 14 16 15 16 17 21 20 22 23 22 22 22 23 23 17 14 12 5
12 8 3 1 6 5 3 6 6 3 3 3 4 5 6 2 1 1 1 3 2 2 2 1 3 2 3 3 4 0 3 6 7 9 2 9 16 16 18 18 18 20 19 20 21 20 21 20 20 16 14 13 10 8
5 4 4 8 6 5 3 4 3 3 1 1 4 2 0 1 1 1 2 2 3 3 2 2 3 3 6 4 4 8 4 9 4 4 9 13 15 15 17 17 18 18 19 19 18 19 18 17 15 12 10 11 10 9
8 2 4 4 1 3 2 2 2 4 4 4 3 3 2 4 3 1 2 3 5 3 2 1 5 6 3 5 5 5 3 4 8 10 9 13 16 20 19 18 18 18 18 17 17 16 15 14 9 9 11 11 11 12
3 2 2 0 2 1 1 2 3 2 4 4 1 2 4 4 2 2 2 3 4 3 2 1 3 2 4 4 2 2 5 7 8 9 11 13 17 17 15 18 17 17 15 15 13 13 12 11 9 8 9 7 7 10
3 2 2 5 3 3 3 1 1 3 3 3 5 4 5 5 5 3 2 3 3 3 2 3 4 2 3 2 4 8 8 8 12 12 13 15 14 15 15 14 14 13 13 12 11 8 8 10 8 7 7 7 7 7
11 11 7 6 6 3 2 2 2 3 3 3 3 4 4 4 2 3 5 4 3 3 6 5 1 1 4 7 8 10 10 10 10 12 12 10 10 13 11 11 9 10 9 9 8 11 8 7 8 8 8 9 8 9
7 6 8 5 3 5 4 3 3 3 5 5 5 2 4 2 3 3 3 3 4 3 2 2 3 6 7 8 8 8 9 8 8 8 11 12 11 9 9 8 9 7 7 7 7 9 10 8 7 7 8 9 9 9
1 9 4 7 4 4 5 5 2 3 3 4 3 3 3 2 2 2 1 5 3 2 2 4 6 7 8 7 7 7 8 9 9 7 9 9 7 8 8 8 8 8 8 8 7 7 7 7 6 7 8 8 9 9
7 6 6 8 4 6 2 4 3 5 3 3 2 3 3 2 1 1 4 2 1 1 3 4 7 7 6 6 6 5 6 6 5 5 7 6 6 6 7 8 8 8 8 9 8 7 7 10 9 8 8 9 8 10
11 8 8 6 7 3 3 6 4 3 4 3 3 3 2 1 0 3 3 0 1 3 5 8 6 5 4 6 6 6 7 6 4 5 7 7 6 8 7 8 8 8 8 6 7 7 8 8 10 9 9 10 11 10
10 10 7 8 5 5 7 5 6 4 4 3 3 2 2 2 2 2 1 1 2 4 5 5 5 5 4 4 5 6 8 6 6 7 8 7 6 6 8 7 9 10 10 9 10 10 10 9 9 10 10 10 11 11
11 5 5 2 4 5 3 4 4 4 3 2 3 2 2 2 2 1 1 1 1 2 4 5 5 5 4 4 4 5 6 6 5 6 6 7 7 6 7 8 9 10 11 8 7 9 9 9 9 11 10 11 11 9
7 5 3 0 3 2 4 3 2 3 3 3 3 3 1 2 2 2 1 1 1 1 2 2 2 2 3 4 4 4 5 4 2 2 2 4 5 6 6 6 7 6 8 8 7 7 6 6 6 5 5 5 5 4
3 4 4 5 4 1 4 3 3 1 2 3 2 1 1 2 3 1 1 0 1 3 1 0 1 2 2 2 4 6 5 6 4 1 2 1 2 3 5 3 3 11 7 7 5 4 5 4 4 4 5 4 3 4
4 3 1 5 4 4 2 3 3 3 2 3 1 1 2 3 2 2 1 1 2 1 1 1 1 3 2 2 1 1 3 5 5 6 6 4 5 4 7 6 6 6 6 7 11 10 4 4 4 4 3 3 2 1
4 2 3 2 4 1 3 3 2 2 1 2 2 2 2 3 3 2 2 2 2 3 2 2 2 2 2 3 4 4 1 0 2 3 1 2 4 5 6 6 6 5 4 4 5 5 8 5 5 4 3 3 3 3
1 3 3 2 2 3 3 3 3 2 3 1 2 2 3 3 5 3 4 3 3 2 1 3 3 2 2 3 2 2 5 2 4 4 4 4 5 5 6 5 4 3 2 3 4 4 4 4 4 4 6 6 6 5
3 3 2 2 3 3 4 4 1 1 3 2 2 2 4 4 3 4 3 4 3 2 6 4 3 5 5 4 3 3 6 6 6 6 6 5 6 7 6 5 4 2 3 4 3 3 3 3 4 5 5 7 7 7
2 1 1 2 5 5 4 4 5 5 3 2 2 1 2 3 6 5 3 4 5 6 5 6 6 5 6 7 6 5 7 7 9 11 12 13 13 11 8 5 4 4 5 5 5 4 6 6 6 7 8 8 8 8
Wind_Direction
287 288 290 287 279 282 286 286 283 278 281 280 275 273 271 265 260 264 256 217 221 275 277 247 259 271 299 286 285 4 342 358 224 226 230 226 238 227 232 232 225 220 203 211 230 242 248 217 226 220 236 240 241 257
287 287 291 289 287 283 279 283 282 278 271 274 274 269 266 261 263 254 248 233 221 228 273 256 261 259 263 261 273 207 306 322 295 304 350 320 295 215 198 226 217 230 226 235 220 230 238 210 222 225 241 251 252 251
288 288 286 290 289 283 278 276 280 281 279 270 266 263 264 266 263 252 239 235 182 224 247 263 253 264 253 253 238 243 252 246 254 340 342 315 316 333 307 330 317 281 267 265 261 252 263 253 236 240 240 240 248 253
282 283 286 286 282 282 280 276 273 275 278 273 265 267 265 262 260 262 241 177 225 203 235 261 310 250 233 219 214 229 260 287 305 325 281 264 276 239 274 278 257 275 297 284 291 288 281 284 280 283 288 288 280 275
278 279 284 279 280 286 284 280 276 271 267 271 269 258 261 259 255 258 252 212 196 238 219 238 252 252 246 252 264 257 242 245 242 265 257 266 276 277 265 265 259 269 282 277 276 296 282 284 307 307 299 293 285 276
279 282 280 273 277 281 283 283 280 273 268 260 268 262 257 256 252 252 236 205 203 195 258 233 260 260 244 222 234 245 242 257 218 230 260 250 260 271 261 261 270 277 282 287 290 292 295 305 296 289 285 289 290 286
285 280 273 274 278 281 284 287 280 278 272 260 259 259 256 254 240 213 252 122 166 164 255 262 240 241 264 233 231 210 192 216 223 255 247 268 267 264 263 267 280 274 275 273 274 280 284 286 288 286 284 286 283 278
283 281 276 277 281 283 287 287 283 274 271 254 255 255 260 256 257 239 229 228 166 192 205 231 216 302 170 203 245 217 244 233 215 253 267 261 269 262 260 260 257 264 269 276 316 327 309 306 301 294 290 287 283 280
280 279 278 277 281 283 288 286 279 268 254 238 237 244 301 195 211 222 196 224 192 222 254 189 222 264 146 208 240 243 233 270 258 248 248 250 245 237 254 327 357 358 346 322 318 308 309 331 320 309 308 298 292 292
278 273 272 277 284 277 282 286 285 250 217 213 155 160 220 214 170 109 48 139 194 202 237 205 160 239 179 263 260 268 176 237 239 236 266 224 242 252 45 19 349 339 336 335 333 324 333 314 306 302 298 289 284 283
273 274 279 277 280 277 285 277 269 237 214 131 163 206 268 156 90 162 201 190 148 238 224 228 198 231 197 201 215 214 251 251 248 252 253 261 274 66 4 349 338 331 327 320 307 297 295 288 292 295 290 284 281 283
267 275 277 278 267 267 258 288 250 230 181 183 140 106 170 195 189 195 170 122 204 221 221 203 201 195 207 170 200 213 227 242 241 165 232 269 271 16 347 334 327 327 320 310 308 301 298 293 293 286 281 280 280 279
265 272 273 260 242 256 272 241 199 152 112 145 177 179 188 159 187 199 177 235 254 207 221 228 225 188 165 194 212 218 210 234 4 239 257 277 27 354 340 326 320 320 318 312 307 304 300 298 298 287 284 273 272 271
259 278 278 246 235 237 38 339 326 185 117 140 133 180 204 181 226 187 193 190 145 130 298 251 247 211 196 180 218 203 234 326 243 252 267 30 338 329 325 321 316 317 315 312 313 313 308 305 305 302 301 313 306 339
252 253 177 124 236 149 80 90 63 84 128 182 149 216 206 229 24 45 73 116 19 293 314 249 253 236 216 227 218 161 288 236 226 261 325 330 326 322 317 317 313 313 314 315 314 310 312 312 307 317 336 343 6 30
196 124 112 118 92 75 29 68 51 68 53 201 207 219 163 95 254 72 27 94 9 325 263 236 240 212 228 214 167 221 208 235 303 350 315 312 312 310 308 307 307 307 314 312 310 313 315 317 318 328 351 7 27 49
149 136 106 75 331 283 304 109 106 181 193 195 206 41 69 66 76 76 351 5 330 308 225 232 223 221 316 232 244 17 290 332 314 307 301 303 304 308 307 305 312 313 313 313 313 318 324 319 335 14 25 18 43 56
95 183 83 1 213 76 124 94 121 165 194 48 169 44 62 29 66 35 344 344 340 3 326 350 337 257 264 255 254 11 308 301 289 293 299 301 300 300 302 310 312 314 316 314 322 325 333 345 360 7 8 20 53 57
150 191 134 84 93 107 146 316 45 165 84 103 105 76 81 89 60 32 4 12 36 5 23 28 56 359 315 305 305 309 306 304 308 308 300 302 300 304 311 310 311 318 319 329 337 340 345 358 4 7 21 30 51 52
96 64 41 49 49 83 112 33 337 78 95 98 75 83 73 74 106 32 31 30 37 40 40 44 92 243 272 287 289 289 290 295 300 305 306 312 312 317 318 320 322 326 335 342 351 4 -0 10 17 23 33 36 51 56
56 12 29 18 73 57 68 359 67 56 104 85 141 78 88 66 45 25 21 8 56 48 356 244 239 285 288 284 280 280 289 293 290 286 292 306 316 326 324 329 334 347 355 359 8 12 19 22 18 26 39 44 48 59
343 35 51 4 78 75 79 21 17 360 85 122 95 81 75 65 39 16 333 48 59 245 224 297 301 301 300 299 312 310 302 300 291 293 305 309 320 340 345 350 351 355 8 10 8 16 24 28 33 46 56 62 61 65
42 37 54 12 76 40 8 344 61 10 88 82 84 73 56 63 90 154 74 105 217 262 304 303 302 302 303 312 321 331 337 329 334 337 332 326 320 356 5 7 4 -0 2 13 10 17 26 29 36 45 52 57 62 64
36 46 33 40 22 47 2 28 11 31 42 43 63 82 47 48 67 65 84 6 301 322 342 341 337 341 346 357 6 3 1 350 360 10 6 349 350 9 14 25 19 13 356 5 19 26 28 34 36 39 42 52 52 57
72 4 35 8 12 34 35 21 4 30 59 21 70 79 25 341 77 68 98 317 329 349 347 340 353 0 351 338 354 3 6 6 15 28 10 3 358 12 23 23 37 27 5 13 22 27 27 29 35 40 42 48 58 59
69 329 61 346 2 61 7 59 35 21 4 65 43 334 332 75 74 163 205 287 316 327 337 351 355 347 354 357 318 339 339 341 356 43 23 12 17 20 14 22 17 18 7 5 8 29 37 36 40 45 44 39 45 64
59 343 332 180 131 90 49 29 27 54 51 32 357 335 314 95 183 230 166 135 260 294 295 348 4 358 332 331 317 312 307 317 307 139 130 58 43 36 33 24 12 339 331 356 16 26 34 35 46 50 70 61 42 42
120 40 68 301 49 32 115 66 62 64 262 282 272 315 351 179 201 188 215 77 309 302 282 52 19 336 328 338 334 329 325 324 297 270 207 182 135 71 33 7 355 4 354 349 9 40 58 54 51 46 50 55 35 29
46 336 82 21 22 42 73 138 202 236 203 112 174 286 268 246 234 230 247 254 306 290 251 282 295 347 304 283 267 350 349 353 30 41 31 -0 341 336 5 352 351 357 357 348 348 1 86 73 68 61 61 37 32 17
320 23 78 67 80 38 251 169 229 273 212 180 219 283 256 267 245 213 212 232 220 227 238 264 291 318 300 333 321 323 279 69 62 106 127 304 271 301 327 329 328 331 339 343 347 339 1 23 360 16 11 7 11 349
333 36 61 60 142 246 241 289 308 10 29 355 336 172 247 302 301 251 200 193 168 106 35 292 294 220 216 258 223 315 312 269 219 241 250 262 278 278 279 279 273 278 305 331 343 347 344 342 355 344 342 340 332 328
3 64 97 57 296 289 12 41 348 52 326 30 280 333 337 19 292 280 221 128 121 210 231 193 209 263 216 228 236 246 239 275 271 255 253 253 262 263 267 271 269 264 277 285 278 280 284 283 295 288 285 281 280 283
25 35 66 32 3 360 336 19 17 346 12 7 299 267 239 192 243 274 291 215 203 207 213 213 224 233 232 232 234 245 234 241 253 268 270 263 266 272 275 263 230 226 238 247 249 246 256 261 270 270 270 268 272 271